Location: Great Snoring
(52.8667°N, 0.8833°E)
Time: 04:21:42
(UTC+00:00)

Cosmos 1980 Rocket - Pass Details

Date: 19 May 2025
Orbit: 829 x 847 km, 71.0° (Epoch: 13 June)

Event Time Altitude Azimuth Distance (km) Brightness Sun altitude
Rises 20:43:39 0° 329° (NNW) 3,385 7.3 -6.4°
Reaches altitude 10° 20:46:11 10° 335° (NNW) 2,448 6.1 -6.7°
Maximum altitude 20:51:38 50° 50° (NE) 1,056 2.7 -7.3°
Drops below altitude 10° 20:57:04 10° 126° (SE) 2,440 4.0 -7.8°
Enters shadow 20:57:18 - 127° (SE) 2,529 4.0 -7.8°
